Francistown, Botswana

6:15 AM CAT on January 20, 2018 (GMT +0200)
Francistown

Weather History for FBFT - October, 2012

Change the Weather History Date:

Wednesday, October 24, 2012

  Actual Average Record
Temperature  
Mean Temperature 72 °F -  
Max Temperature 85 °F 86 °F 105 °F (2011)
Min Temperature 59 °F 64 °F 58 °F (2015)
Cooling Degree Days 7    
Growing Degree Days 22 (Base 50)    
Moisture  
Dew Point 57 °F    
Average Humidity 76    
Maximum Humidity 100    
Minimum Humidity 52    
Precipitation  
Precipitation 0.00 in - - ()
Sea Level Pressure  
Sea Level Pressure 30.14 in    
Wind  
Wind Speed 16 mph ()    
Max Wind Speed 22 mph    
Max Gust Speed 33 mph    
Visibility 6.2 miles    
Events Rain    
Averages and records for this station are not official NWS values.
T = Trace of Precipitation, MM = Missing Value Source: Averaged Metar Reports

Daily Weather History Graph

Daily Weather History Graph

Search for Another Location

Airport or City:

Trip Planner

Search our weather history database for the weather conditions in past years. The results will help you decide how hot, cold, wet, or windy it might be!

Date:

Astronomy

Oct. 24, 2012 Rise Set
Actual Time 5:31 AM CAT 6:16 PM CAT
Civil Twilight 5:08 AM CAT 6:39 PM CAT
Nautical Twilight 4:42 AM CAT 7:06 PM CAT
Astronomical Twilight 4:14 AM CAT 7:33 PM CAT
Moon 1:50 PM CAT (10/24) 1:50 AM CAT (10/24)
Length of Visible Light 13h 30m
Length of Day
12h 45m
Waxing Gibbous, 73% of the Moon is Illuminated
Oct 24
Waxing Gibbous
Oct 29
Full
Nov 7
Last Quarter
Nov 14
New
Nov 20
First Quarter

Hourly Weather History & Observations

Time (CAT) Temp. Dew Point Humidity Pressure Visibility Wind Dir Wind Speed Gust Speed Precip Events Conditions
12:00 AM 62.6 °F 57.2 °F 82% 30.12 in 6.2 mi East 17.3 mph - N/A   Overcast
1:00 AM 62.6 °F 57.2 °F 82% 30.12 in 6.2 mi ESE 18.4 mph - N/A   Overcast
2:00 AM 63 °F 57 °F 74%  in 6 mi ESE 17.3 mph - -   Overcast
2:00 AM 62.6 °F 57.2 °F 82% 30.15 in 6.2 mi ESE 17.3 mph - N/A   Overcast
3:00 AM 60.8 °F 57.2 °F 88% 30.12 in 6.2 mi ESE 15.0 mph - N/A   Overcast
4:00 AM 59.0 °F 59.0 °F 100% 30.12 in 6.2 mi ESE 16.1 mph - N/A   Overcast
5:00 AM 60.8 °F 57.2 °F 88% 30.12 in 6.2 mi ESE 13.8 mph - N/A Rain Light Rain
6:00 AM 59.0 °F 57.2 °F 94% 30.12 in 6.2 mi East 15.0 mph - N/A   Overcast
7:00 AM 59.0 °F 57.2 °F 94% 30.15 in 6.2 mi East 15.0 mph - N/A   Overcast
8:00 AM 61 °F 56 °F 78%  in 6 mi East 17.3 mph - -   Overcast
8:00 AM 60.8 °F 57.2 °F 88% 30.15 in 6.2 mi East 17.3 mph - N/A   Overcast
9:00 AM 64.4 °F 55.4 °F 73% 30.18 in 6.2 mi East 18.4 mph - N/A   Overcast
10:00 AM 68.0 °F 55.4 °F 64% 30.15 in 6.2 mi East 21.9 mph 33.4 mph N/A   Overcast
11:00 AM 68.0 °F 55.4 °F 64% 30.15 in 6.2 mi East 18.4 mph - N/A   Mostly Cloudy
12:00 PM 68.0 °F 55.4 °F 64% 29.89 in 6.2 mi East 18.4 mph - N/A   Mostly Cloudy
2:00 PM 70 °F 56 °F 52%  in 6 mi East 18.4 mph - -   Mostly Cloudy
2:00 PM 69.8 °F 57.2 °F 64% 30.12 in 6.2 mi East 18.4 mph - N/A   Mostly Cloudy
3:00 PM 71.6 °F 55.4 °F 57% 30.12 in 6.2 mi East 19.6 mph - N/A   Mostly Cloudy
4:00 PM 71.6 °F 57.2 °F 60% 30.12 in 6.2 mi East 20.7 mph - N/A   Scattered Clouds
5:00 PM 69.8 °F 55.4 °F 60% 30.12 in 6.2 mi ESE 21.9 mph - N/A   Mostly Cloudy
6:00 PM 66.2 °F 57.2 °F 73% 30.15 in 6.2 mi East 17.3 mph - N/A   Mostly Cloudy
7:00 PM 66.2 °F 57.2 °F 73% 30.15 in 6.2 mi East 18.4 mph - N/A   Mostly Cloudy
8:00 PM 64 °F 57 °F 73%  in 6 mi East 17.3 mph - -   Mostly Cloudy
8:00 PM 64.4 °F 57.2 °F 77% 30.18 in 6.2 mi East 18.4 mph - N/A   Mostly Cloudy
9:00 PM 62.6 °F 57.2 °F 82% 30.21 in 6.2 mi East 19.6 mph - N/A   Mostly Cloudy
10:00 PM 62.6 °F 57.2 °F 82% 30.21 in 6.2 mi East 20.7 mph - N/A   Mostly Cloudy
11:00 PM 62.6 °F 59.0 °F 88% 30.21 in 6.2 mi ENE 11.5 mph - N/A   Overcast